Flight Track Log - Related Links

Times and Time Zones

All times are in EST time to prevent confusion due to time zone crossing. See the CTL311 flight status page for this flight to view local times or setup timezone preferences in your user account.

Time Position Orientation Groundspeed Altitude Reporting Facility
EST Latitude Longitude Course Direction KTS MPH feet Rate Location/Type
06:58PM 42.9333 -87.9000 216° Southwest 120 138 1,500  Level KMKE
06:59PM 42.9167 -87.9167 216° Southwest 122 140 2,100 884 Climbing KMKE
07:00PM 42.8767 -87.9322 196° South 135 155 2,900 793 Climbing Chicago Center
07:01PM 42.8417 -87.9561 207° Southwest 138 159 3,700 484 Climbing Chicago Center
07:02PM 42.8019 -87.9681 192° South 150 173 3,900 97 Climbing Chicago Center
07:03PM 42.7567 -87.9672 179° South 160 184 3,900 48 Level Chicago Center
07:04PM 42.7144 -87.9606 173° South 158 182 4,000 48 Climbing Chicago Center
07:05PM 42.6636 -87.9519 173° South 155 178 4,000 -48 Level Chicago Center
07:06PM 42.6197 -87.9456 174° South 157 181 3,900  Descending Chicago Center
07:07PM 42.5750 -87.9411 176° South 160 184 4,000 48 Climbing Chicago Center
07:08PM 42.5308 -87.9367 176° South 159 183 4,000 -48 Level Chicago Center
07:09PM 42.4867 -87.9325 176° South 159 183 3,900 -48 Descending Chicago Center
07:10PM 42.4419 -87.9278 176° South 161 185 3,900 -242 Level Chicago Center
07:11PM 42.3869 -87.9319 183° South 164 189 3,400 -435 Descending Chicago Center
07:12PM 42.3367 -87.9383 185° South 168 193 3,000 -194 Descending Chicago Center
07:13PM 42.2989 -87.9403 182° South 165 190 3,000 -290 Level Chicago Center
07:14PM 42.2453 -87.9383 178° South 162 186 2,400 -532 Descending Chicago Center
07:15PM 42.1997 -87.9286 171° South 163 188 1,900 -339 Descending Chicago Center
07:16PM 42.1600 -87.9214 172° South 161 185 1,700 -194 Descending Chicago Center
07:18PM 42.1074 -87.9000 180° South  Level FlightAware Approximate
07:25PM 42.1000 -87.9000 180° South  Level FlightAware Approximate

Login

Don't have an account? Register now (free) for customized features, flight alerts, and more!